TRA6ME EDDM-EDDH

Flight info

Callsign TRA6ME
Flight time 1h 5m
Altitude 36000
Route INPUD2N/26R INPUD Y102 UPALA M726 NARUS DCT ABGUS DCT DIRBO T902 RARUP RARUP6A
Aircraft B738/M-SDE2E3FGHIRWXY/LB1

Departure

Time 2026-05-07 13:02
Airport Munich Airport (EDDM)

Arrival

Time 2026-05-07 14:07
Airport Hamburg Helmut Schmidt Airport (EDDH)
Time Latitude Longitude Altitude Speed Heading
2026-05-07 12:26 48.35000 11.79822 1466 ft 0 kts 173°
2026-05-07 12:43 48.35008 11.79820 1466 ft 4 kts 177°
2026-05-07 12:43 48.35034 11.79822 1464 ft 4 kts 179°
2026-05-07 12:43 48.35055 11.79820 1458 ft 4 kts 177°
2026-05-07 12:44 48.35066 11.79819 1459 ft 0 kts 189°
2026-05-07 12:45 48.35063 11.79816 1456 ft 1 kts 207°
2026-05-07 12:45 48.35060 11.79810 1456 ft 1 kts 229°
2026-05-07 12:45 48.35058 11.79808 1456 ft 0 kts 225°
2026-05-07 12:46 48.35062 11.79814 1456 ft 2 kts 238°
2026-05-07 12:46 48.35069 11.79836 1463 ft 3 kts 260°
2026-05-07 12:46 48.35069 11.79843 1456 ft 0 kts 264°
2026-05-07 12:48 48.35068 11.79820 1459 ft 5 kts 264°
2026-05-07 12:48 48.35065 11.79770 1458 ft 5 kts 264°
2026-05-07 12:49 48.35061 11.79717 1461 ft 6 kts 268°
2026-05-07 12:49 48.35090 11.79660 1463 ft 7 kts 335°
2026-05-07 12:49 48.35140 11.79646 1465 ft 7 kts 353°
2026-05-07 12:49 48.35188 11.79637 1464 ft 7 kts 353°
2026-05-07 12:50 48.35236 11.79629 1464 ft 7 kts 353°
2026-05-07 12:50 48.35282 11.79621 1462 ft 7 kts 354°
2026-05-07 12:50 48.35341 11.79611 1463 ft 10 kts 353°
2026-05-07 12:50 48.35425 11.79597 1462 ft 14 kts 353°
2026-05-07 12:51 48.35520 11.79580 1466 ft 13 kts 353°
2026-05-07 12:51 48.35611 11.79565 1464 ft 13 kts 353°
2026-05-07 12:51 48.35698 11.79549 1458 ft 13 kts 353°
2026-05-07 12:51 48.35784 11.79535 1466 ft 12 kts 354°
2026-05-07 12:52 48.35868 11.79521 1461 ft 12 kts 353°
2026-05-07 12:52 48.35950 11.79507 1466 ft 12 kts 354°
2026-05-07 12:52 48.36002 11.79498 1462 ft 5 kts 353°
2026-05-07 12:52 48.36020 11.79495 1458 ft 0 kts 353°
2026-05-07 12:53 48.36032 11.79493 1463 ft 5 kts 353°
2026-05-07 12:53 48.36071 11.79486 1459 ft 7 kts 353°
2026-05-07 12:54 48.36127 11.79475 1461 ft 11 kts 353°
2026-05-07 12:54 48.36209 11.79489 1460 ft 13 kts 46°
2026-05-07 12:54 48.36226 11.79622 1464 ft 13 kts 83°
2026-05-07 12:54 48.36237 11.79768 1460 ft 15 kts 83°
2026-05-07 12:55 48.36249 11.79933 1463 ft 17 kts 84°
2026-05-07 12:55 48.36264 11.80122 1467 ft 19 kts 83°
2026-05-07 12:55 48.36280 11.80329 1458 ft 20 kts 83°
2026-05-07 12:55 48.36295 11.80528 1462 ft 19 kts 83°
2026-05-07 12:56 48.36310 11.80718 1460 ft 18 kts 83°
2026-05-07 12:56 48.36324 11.80902 1459 ft 17 kts 83°
2026-05-07 12:56 48.36338 11.81080 1458 ft 17 kts 83°
2026-05-07 12:56 48.36351 11.81251 1462 ft 16 kts 83°
2026-05-07 12:57 48.36364 11.81415 1466 ft 16 kts 83°
2026-05-07 12:57 48.36376 11.81573 1463 ft 15 kts 83°
2026-05-07 12:57 48.36388 11.81724 1465 ft 14 kts 83°
2026-05-07 12:57 48.36397 11.81868 1465 ft 14 kts 90°
2026-05-07 12:58 48.36390 11.81988 1459 ft 9 kts 75°
2026-05-07 12:58 48.36445 11.82011 1462 ft 9 kts 352°
2026-05-07 12:58 48.36506 11.82001 1463 ft 9 kts 353°
2026-05-07 12:58 48.36556 11.81991 1462 ft 4 kts 353°
2026-05-07 12:59 48.36561 11.81990 1463 ft 0 kts 353°
2026-05-07 13:00 48.36579 11.81987 1465 ft 7 kts 353°
2026-05-07 13:00 48.36641 11.81969 1458 ft 11 kts 336°
2026-05-07 13:00 48.36671 11.81878 1464 ft 8 kts 265°
2026-05-07 13:00 48.36668 11.81848 1465 ft 0 kts 263°
2026-05-07 13:01 48.36668 11.81847 1465 ft 1 kts 263°
2026-05-07 13:01 48.36646 11.81562 1466 ft 63 kts 263°
2026-05-07 13:01 48.36568 11.80561 1467 ft 128 kts 263°
2026-05-07 13:02 48.36450 11.78986 1681 ft 163 kts 265°
2026-05-07 13:02 48.36322 11.77318 2543 ft 159 kts 265°
2026-05-07 13:02 48.36194 11.75671 3385 ft 160 kts 265°
2026-05-07 13:02 48.36070 11.73955 4078 ft 168 kts 265°
2026-05-07 13:03 48.35928 11.72182 4817 ft 176 kts 264°
2026-05-07 13:03 48.35771 11.70287 5343 ft 191 kts 264°
2026-05-07 13:03 48.35610 11.68189 5630 ft 213 kts 267°
2026-05-07 13:03 48.35967 11.65994 6075 ft 227 kts 303°
2026-05-07 13:04 48.37236 11.64351 6295 ft 263 kts 332°
2026-05-07 13:04 48.39044 11.63808 7278 ft 259 kts 356°
2026-05-07 13:04 48.40786 11.63806 8577 ft 246 kts 355°
2026-05-07 13:04 48.42508 11.63579 9193 ft 257 kts 343°
2026-05-07 13:05 48.44290 11.62763 9549 ft 276 kts 337°
2026-05-07 13:05 48.46116 11.61756 10241 ft 283 kts 336°
2026-05-07 13:05 48.48040 11.60679 10506 ft 307 kts 337°
2026-05-07 13:05 48.50126 11.59526 10725 ft 330 kts 337°
2026-05-07 13:06 48.52329 11.58336 11274 ft 341 kts 338°
2026-05-07 13:06 48.54587 11.57140 12029 ft 345 kts 338°
2026-05-07 13:06 48.56864 11.55948 12848 ft 347 kts 338°
2026-05-07 13:06 48.59161 11.54754 13621 ft 351 kts 338°
2026-05-07 13:07 48.61484 11.53548 14306 ft 355 kts 338°
2026-05-07 13:07 48.63834 11.52328 14967 ft 359 kts 338°
2026-05-07 13:07 48.66210 11.51095 15628 ft 363 kts 338°
2026-05-07 13:07 48.68607 11.49850 16279 ft 367 kts 338°
2026-05-07 13:08 48.71044 11.48583 16920 ft 371 kts 338°
2026-05-07 13:08 48.73465 11.47322 17560 ft 375 kts 338°
2026-05-07 13:08 48.75943 11.46031 18202 ft 379 kts 338°
2026-05-07 13:08 48.78451 11.44722 18770 ft 383 kts 338°
2026-05-07 13:09 48.80976 11.43404 19004 ft 385 kts 338°
2026-05-07 13:09 48.83522 11.42072 19127 ft 390 kts 338°
2026-05-07 13:09 48.86095 11.40725 19798 ft 389 kts 338°
2026-05-07 13:09 48.88654 11.39387 20584 ft 388 kts 338°
2026-05-07 13:10 48.91206 11.38049 21176 ft 391 kts 338°
2026-05-07 13:10 48.93798 11.36688 21715 ft 394 kts 338°
2026-05-07 13:10 48.96401 11.35319 22242 ft 397 kts 338°
2026-05-07 13:10 48.99022 11.33939 22779 ft 400 kts 338°
2026-05-07 13:11 49.01664 11.32547 23287 ft 403 kts 338°
2026-05-07 13:11 49.04319 11.31147 23773 ft 405 kts 338°
2026-05-07 13:11 49.06987 11.29738 24183 ft 408 kts 339°
2026-05-07 13:11 49.09678 11.28315 24594 ft 410 kts 339°
2026-05-07 13:12 49.12384 11.26884 25062 ft 412 kts 339°
2026-05-07 13:12 49.15102 11.25444 25510 ft 414 kts 339°
2026-05-07 13:12 49.17837 11.23994 25969 ft 417 kts 339°
2026-05-07 13:12 49.20615 11.22704 26370 ft 421 kts 347°
2026-05-07 13:13 49.23543 11.22185 26746 ft 425 kts 355°
2026-05-07 13:13 49.26513 11.22121 27144 ft 428 kts 359°
2026-05-07 13:13 49.29505 11.22249 27521 ft 431 kts 360°
2026-05-07 13:13 49.32500 11.22393 27869 ft 433 kts 359°
2026-05-07 13:14 49.35518 11.22468 28212 ft 435 kts 358°
2026-05-07 13:14 49.38551 11.22436 28555 ft 437 kts 357°
2026-05-07 13:14 49.41602 11.22369 28879 ft 439 kts 358°
2026-05-07 13:14 49.44656 11.22328 29220 ft 441 kts 358°
2026-05-07 13:15 49.47729 11.22326 29536 ft 443 kts 359°
2026-05-07 13:15 49.50817 11.22351 29843 ft 445 kts 359°
2026-05-07 13:15 49.53924 11.22385 30147 ft 446 kts 359°
2026-05-07 13:15 49.57026 11.22415 30471 ft 446 kts 359°
2026-05-07 13:16 49.60082 11.22432 30803 ft 445 kts 359°
2026-05-07 13:16 49.63181 11.22443 31096 ft 445 kts 359°
2026-05-07 13:16 49.66281 11.22453 31376 ft 446 kts 359°
2026-05-07 13:16 49.69391 11.22465 31664 ft 446 kts 359°
2026-05-07 13:17 49.72500 11.22478 31922 ft 447 kts 359°
2026-05-07 13:17 49.75617 11.22493 32155 ft 449 kts 359°
2026-05-07 13:17 49.78746 11.22507 32409 ft 450 kts 359°
2026-05-07 13:17 49.81875 11.22518 32673 ft 450 kts 359°
2026-05-07 13:18 49.85014 11.22528 32906 ft 452 kts 359°
2026-05-07 13:18 49.88165 11.22537 33168 ft 453 kts 359°
2026-05-07 13:18 49.91317 11.22547 33434 ft 454 kts 359°
2026-05-07 13:18 49.94480 11.22558 33663 ft 455 kts 359°
2026-05-07 13:19 49.97649 11.22568 33884 ft 456 kts 359°
2026-05-07 13:19 50.00830 11.22578 34111 ft 457 kts 359°
2026-05-07 13:19 50.04010 11.22589 34323 ft 457 kts 359°
2026-05-07 13:19 50.07191 11.22599 34528 ft 458 kts 358°
2026-05-07 13:20 50.10382 11.22614 34751 ft 458 kts 359°
2026-05-07 13:20 50.13571 11.22636 34961 ft 458 kts 359°
2026-05-07 13:20 50.16769 11.22660 35174 ft 459 kts 359°
2026-05-07 13:20 50.19961 11.22685 35384 ft 459 kts 359°
2026-05-07 13:21 50.23158 11.22709 35589 ft 459 kts 359°
2026-05-07 13:21 50.26358 11.22732 35768 ft 460 kts 359°
2026-05-07 13:21 50.29559 11.22754 35938 ft 461 kts 359°
2026-05-07 13:21 50.32769 11.22776 35967 ft 464 kts 359°
2026-05-07 13:22 50.39225 11.22579 35983 ft 463 kts 354°
2026-05-07 13:22 50.45563 11.21547 35985 ft 458 kts 352°
2026-05-07 13:23 50.51881 11.20453 35986 ft 456 kts 353°
2026-05-07 13:23 50.58189 11.19486 35993 ft 454 kts 353°
2026-05-07 13:24 50.64481 11.18551 35988 ft 453 kts 353°
2026-05-07 13:24 50.70748 11.17693 36009 ft 452 kts 355°
2026-05-07 13:25 50.77040 11.17056 36012 ft 453 kts 355°
2026-05-07 13:25 50.83356 11.16441 36016 ft 455 kts 355°
2026-05-07 13:26 50.89684 11.15792 36024 ft 457 kts 355°
2026-05-07 13:26 50.96041 11.15120 36028 ft 459 kts 355°
2026-05-07 13:27 51.02424 11.14439 36031 ft 461 kts 355°
2026-05-07 13:27 51.08841 11.13754 36013 ft 462 kts 355°
2026-05-07 13:28 51.15231 11.13071 36016 ft 463 kts 355°
2026-05-07 13:28 51.21652 11.12383 36025 ft 463 kts 355°
2026-05-07 13:29 51.28081 11.11692 36021 ft 462 kts 355°
2026-05-07 13:29 51.34488 11.11001 36032 ft 462 kts 355°
2026-05-07 13:30 51.40901 11.10308 36032 ft 461 kts 355°
2026-05-07 13:30 51.47306 11.09614 36031 ft 461 kts 355°
2026-05-07 13:31 51.53711 11.08918 36022 ft 460 kts 355°
2026-05-07 13:31 51.60086 11.08223 36039 ft 458 kts 355°
2026-05-07 13:32 51.66402 11.07533 36054 ft 458 kts 355°
2026-05-07 13:32 51.72817 11.06829 36043 ft 459 kts 355°
2026-05-07 13:33 51.79171 11.06131 36038 ft 457 kts 355°
2026-05-07 13:33 51.85461 11.05437 36046 ft 455 kts 355°
2026-05-07 13:34 51.94876 11.03748 36051 ft 453 kts 351°
2026-05-07 13:35 52.01119 11.02302 36053 ft 453 kts 351°
2026-05-07 13:35 52.07375 11.00903 35902 ft 457 kts 351°
2026-05-07 13:35 52.10555 11.00212 35348 ft 462 kts 352°
2026-05-07 13:36 52.13737 10.99528 34743 ft 461 kts 352°
2026-05-07 13:36 52.16915 10.98849 34246 ft 458 kts 352°
2026-05-07 13:36 52.20054 10.98177 33753 ft 454 kts 352°
2026-05-07 13:36 52.23161 10.97511 33245 ft 449 kts 352°
2026-05-07 13:37 52.26246 10.96848 32797 ft 444 kts 352°
2026-05-07 13:37 52.29293 10.96191 32334 ft 439 kts 352°
2026-05-07 13:37 52.32304 10.95541 31917 ft 434 kts 352°
2026-05-07 13:37 52.35239 10.94906 31472 ft 430 kts 352°
2026-05-07 13:38 52.38197 10.94265 31040 ft 426 kts 352°
2026-05-07 13:38 52.41132 10.93629 30613 ft 423 kts 351°
2026-05-07 13:38 52.44036 10.92998 30178 ft 420 kts 351°
2026-05-07 13:38 52.46916 10.92370 29683 ft 416 kts 351°
2026-05-07 13:39 52.49772 10.91748 29244 ft 411 kts 351°
2026-05-07 13:39 52.52592 10.91132 28804 ft 407 kts 351°
2026-05-07 13:39 52.55376 10.90523 28372 ft 403 kts 351°
2026-05-07 13:39 52.58147 10.89917 27946 ft 399 kts 351°
2026-05-07 13:40 52.60888 10.89317 27513 ft 395 kts 351°
2026-05-07 13:40 52.63602 10.88722 27091 ft 392 kts 351°
2026-05-07 13:40 52.66294 10.88131 26662 ft 389 kts 351°
2026-05-07 13:40 52.68737 10.87594 26284 ft 386 kts 351°
2026-05-07 13:41 52.71385 10.87011 25879 ft 383 kts 351°
2026-05-07 13:41 52.74015 10.86431 25474 ft 380 kts 351°
2026-05-07 13:41 52.76630 10.85854 25072 ft 378 kts 351°
2026-05-07 13:41 52.79224 10.85281 24674 ft 375 kts 351°
2026-05-07 13:42 52.81809 10.84710 24269 ft 373 kts 351°
2026-05-07 13:42 52.84379 10.84147 23864 ft 371 kts 351°
2026-05-07 13:42 52.86938 10.83616 23441 ft 370 kts 352°
2026-05-07 13:42 52.89486 10.83104 22992 ft 368 kts 352°
2026-05-07 13:43 52.90400 10.82921 22834 ft 367 kts 352°
2026-05-07 13:43 52.91093 10.82783 22720 ft 366 kts 352°
2026-05-07 13:43 52.93615 10.82279 22310 ft 363 kts 352°
2026-05-07 13:43 52.96106 10.81778 21919 ft 360 kts 352°
2026-05-07 13:44 52.98556 10.81282 21527 ft 358 kts 352°
2026-05-07 13:44 53.01014 10.80782 21136 ft 355 kts 352°
2026-05-07 13:44 53.03461 10.80283 20755 ft 353 kts 352°
2026-05-07 13:44 53.05887 10.79788 20370 ft 350 kts 352°
2026-05-07 13:45 53.08299 10.79295 19990 ft 348 kts 352°
2026-05-07 13:45 53.10696 10.78804 19609 ft 346 kts 352°
2026-05-07 13:45 53.13085 10.78315 19236 ft 344 kts 352°
2026-05-07 13:45 53.15454 10.77829 18856 ft 343 kts 352°
2026-05-07 13:46 53.17819 10.77343 18486 ft 341 kts 352°
2026-05-07 13:46 53.20172 10.76859 18072 ft 340 kts 352°
2026-05-07 13:46 53.22520 10.76375 17654 ft 339 kts 352°
2026-05-07 13:46 53.24063 10.76057 17387 ft 337 kts 352°
2026-05-07 13:47 53.26386 10.75578 17010 ft 335 kts 352°
2026-05-07 13:47 53.28690 10.75102 16630 ft 333 kts 352°
2026-05-07 13:47 53.30983 10.74627 16255 ft 331 kts 352°
2026-05-07 13:47 53.33257 10.74156 15891 ft 328 kts 352°
2026-05-07 13:48 53.35517 10.73687 15523 ft 326 kts 352°
2026-05-07 13:48 53.37742 10.73040 15160 ft 324 kts 344°
2026-05-07 13:48 53.39735 10.71368 14785 ft 321 kts 320°
2026-05-07 13:48 53.41138 10.68496 14372 ft 321 kts 297°
2026-05-07 13:49 53.41750 10.64905 13824 ft 326 kts 273°
2026-05-07 13:49 53.41466 10.61147 13376 ft 325 kts 253°
2026-05-07 13:49 53.40741 10.57583 13028 ft 321 kts 250°
2026-05-07 13:49 53.39958 10.54114 12635 ft 315 kts 249°
2026-05-07 13:50 53.39185 10.50730 12282 ft 307 kts 249°
2026-05-07 13:50 53.38429 10.47433 11950 ft 300 kts 249°
2026-05-07 13:50 53.37693 10.44216 11633 ft 292 kts 249°
2026-05-07 13:50 53.36973 10.41073 11324 ft 286 kts 249°
2026-05-07 13:51 53.36271 10.38008 11041 ft 279 kts 249°
2026-05-07 13:51 53.35585 10.35008 10781 ft 272 kts 249°
2026-05-07 13:51 53.34919 10.32091 10527 ft 265 kts 249°
2026-05-07 13:51 53.34267 10.29239 10274 ft 260 kts 249°
2026-05-07 13:52 53.33629 10.26446 10008 ft 256 kts 249°
2026-05-07 13:52 53.32997 10.23674 9717 ft 254 kts 249°
2026-05-07 13:52 53.32364 10.20901 9432 ft 256 kts 249°
2026-05-07 13:52 53.31735 10.18148 9146 ft 258 kts 249°
2026-05-07 13:53 53.31093 10.15337 8857 ft 260 kts 249°
2026-05-07 13:53 53.30445 10.12506 8581 ft 261 kts 249°
2026-05-07 13:53 53.29793 10.09661 8296 ft 262 kts 249°
2026-05-07 13:53 53.29140 10.06817 8022 ft 262 kts 249°
2026-05-07 13:54 53.28489 10.03978 7767 ft 261 kts 249°
2026-05-07 13:54 53.27837 10.01145 7512 ft 260 kts 249°
2026-05-07 13:54 53.27188 9.98329 7257 ft 259 kts 249°
2026-05-07 13:54 53.26541 9.95520 7014 ft 259 kts 249°
2026-05-07 13:55 53.25895 9.92715 6753 ft 258 kts 249°
2026-05-07 13:55 53.25250 9.89920 6506 ft 257 kts 249°
2026-05-07 13:55 53.24608 9.87137 6241 ft 256 kts 249°
2026-05-07 13:55 53.23971 9.84369 5985 ft 256 kts 249°
2026-05-07 13:56 53.23336 9.81595 5728 ft 255 kts 249°
2026-05-07 13:56 53.22992 9.78718 5433 ft 254 kts 276°
2026-05-07 13:56 53.23544 9.76020 5278 ft 244 kts 307°
2026-05-07 13:56 53.24580 9.73826 5138 ft 239 kts 313°
2026-05-07 13:57 53.25673 9.71723 4985 ft 240 kts 314°
2026-05-07 13:57 53.26764 9.69639 4820 ft 236 kts 314°
2026-05-07 13:57 53.27825 9.67606 4696 ft 227 kts 314°
2026-05-07 13:57 53.28843 9.65654 4519 ft 219 kts 314°
2026-05-07 13:58 53.29840 9.63742 4352 ft 217 kts 314°
2026-05-07 13:58 53.30814 9.61876 4194 ft 209 kts 314°
2026-05-07 13:58 53.31742 9.60085 4052 ft 198 kts 314°
2026-05-07 13:58 53.32610 9.58396 3982 ft 187 kts 314°
2026-05-07 13:59 53.33529 9.56867 3963 ft 185 kts 333°
2026-05-07 13:59 53.34709 9.56373 4005 ft 174 kts
2026-05-07 13:59 53.35915 9.56381 3988 ft 176 kts
2026-05-07 13:59 53.37138 9.56418 4004 ft 175 kts
2026-05-07 14:00 53.38403 9.56464 4030 ft 199 kts
2026-05-07 14:00 53.39578 9.56525 4010 ft 217 kts
2026-05-07 14:00 53.40772 9.56601 3984 ft 215 kts
2026-05-07 14:00 53.42159 9.57329 3975 ft 206 kts 39°
2026-05-07 14:01 53.43193 9.58947 4005 ft 204 kts 47°
2026-05-07 14:01 53.44186 9.60676 4001 ft 206 kts 49°
2026-05-07 14:01 53.45145 9.62471 3998 ft 207 kts 51°
2026-05-07 14:01 53.46079 9.64319 4003 ft 209 kts 51°
2026-05-07 14:02 53.46940 9.66062 3998 ft 210 kts 52°
2026-05-07 14:02 53.47866 9.67948 3995 ft 209 kts 52°
2026-05-07 14:02 53.48783 9.69818 3989 ft 205 kts 52°
2026-05-07 14:02 53.49669 9.71625 3880 ft 195 kts 52°
2026-05-07 14:03 53.50523 9.73367 3647 ft 192 kts 52°
2026-05-07 14:03 53.51366 9.75088 3381 ft 189 kts 52°
2026-05-07 14:03 53.52194 9.76777 3115 ft 185 kts 52°
2026-05-07 14:03 53.52999 9.78416 2870 ft 181 kts 52°
2026-05-07 14:04 53.53795 9.80037 2610 ft 178 kts 52°
2026-05-07 14:04 53.54568 9.81612 2380 ft 168 kts 52°
2026-05-07 14:04 53.55292 9.83084 2143 ft 161 kts 52°
2026-05-07 14:04 53.55993 9.84513 1979 ft 156 kts 52°
2026-05-07 14:05 53.56700 9.85954 1744 ft 160 kts 52°
2026-05-07 14:05 53.57395 9.87368 1517 ft 159 kts 52°
2026-05-07 14:05 53.58099 9.88796 1300 ft 156 kts 52°
2026-05-07 14:05 53.58766 9.90154 1076 ft 146 kts 52°
2026-05-07 14:06 53.59401 9.91444 888 ft 140 kts 51°
2026-05-07 14:06 53.60036 9.92736 686 ft 145 kts 52°
2026-05-07 14:06 53.60674 9.94033 481 ft 144 kts 52°
2026-05-07 14:06 53.61320 9.95348 317 ft 149 kts 52°
2026-05-07 14:07 53.61982 9.96701 109 ft 146 kts 50°
2026-05-07 14:07 53.62590 9.97929 51 ft 120 kts 50°
2026-05-07 14:07 53.63031 9.98818 50 ft 78 kts 50°
2026-05-07 14:07 53.63268 9.99311 53 ft 32 kts 63°
2026-05-07 14:08 53.63283 9.99574 50 ft 10 kts 99°
2026-05-07 14:08 53.63278 9.99625 50 ft 0 kts 99°
2026-05-07 14:09 53.63278 9.99629 50 ft 2 kts 99°
2026-05-07 14:09 53.63273 9.99684 50 ft 8 kts 96°
2026-05-07 14:09 53.63297 9.99800 49 ft 13 kts 50°
2026-05-07 14:09 53.63354 9.99912 50 ft 13 kts 50°
2026-05-07 14:10 53.63409 10.00024 50 ft 12 kts 50°
2026-05-07 14:10 53.63426 10.00129 47 ft 9 kts 108°
2026-05-07 14:10 53.63392 10.00209 50 ft 8 kts 145°
2026-05-07 14:10 53.63342 10.00228 46 ft 7 kts 175°
2026-05-07 14:11 53.63299 10.00236 50 ft 4 kts 163°
2026-05-07 14:11 53.63290 10.00280 50 ft 4 kts 88°
2026-05-07 14:11 53.63292 10.00329 50 ft 4 kts 86°
2026-05-07 14:11 53.63292 10.00347 50 ft 1 kts 87°
2026-05-07 14:12 53.63292 10.00348 50 ft 0 kts 87°